• In Slovakia
  • List of Countries
  • For 7 days
  • Water Temperature
  • Satellite Maps
  • Weather Map
  • Weather Widgets
  • user-avatar
    Login

    Hourly Weather Wurzburg

    Today, 24 February, Saturday

    Time Temperature Precipitation Wind Pressure Humidity
    00:00 -6°C° 0 mm 5 mps 747 mmHg 46%
    01:00 -5°C° 0 mm 4 mps 748 mmHg 47%
    02:00 -5°C° 0 mm 4 mps 748 mmHg 46%
    03:00 -6°C° 0 mm 5 mps 748 mmHg 45%
    04:00 -6°C° 0 mm 5 mps 748 mmHg 45%
    05:00 -6°C° 0 mm 5 mps 748 mmHg 43%
    06:00 -6°C° 0 mm 6 mps 748 mmHg 42%
    07:00 -9°C° 0 mm 6 mps 749 mmHg 43%
    08:00 -6°C° 0 mm 6 mps 749 mmHg 40%
    09:00 -6°C° 0 mm 7 mps 749 mmHg 36%
    10:00 -4°C° 0 mm 7 mps 749 mmHg 33%
    11:00 -3°C° 0 mm 7 mps 749 mmHg 35%
    12:00 -2°C° 0 mm 7 mps 749 mmHg 37%
    13:00 -1°C° 0 mm 7 mps 749 mmHg 38%
    14:00 -1°C° 0 mm 7 mps 749 mmHg 40%
    15:00 -1°C° 0 mm 7 mps 749 mmHg 42%
    16:00 -1°C° 0 mm 7 mps 749 mmHg 43%
    17:00 -3°C° 0 mm 7 mps 749 mmHg 44%
    18:00 -4°C° 0 mm 6 mps 750 mmHg 46%
    19:00 -5°C° 0 mm 6 mps 750 mmHg 47%
    20:00 -5°C° 0 mm 6 mps 750 mmHg 47%
    21:00 -6°C° 0 mm 6 mps 750 mmHg 47%
    22:00 -6°C° 0 mm 6 mps 751 mmHg 46%
    23:00 -8°C° 0 mm 6 mps 751 mmHg 46%

    Tomorrow, 25 February, Sunday

    Time Temperature Precipitation Wind Pressure Humidity
    00:00 -8°C° 0 mm 6 mps 751 mmHg 46%
    01:00 -8°C° 0 mm 6 mps 751 mmHg 47%
    02:00 -9°C° 0 mm 6 mps 751 mmHg 47%
    03:00 -9°C° 0 mm 6 mps 751 mmHg 48%
    04:00 -9°C° 0 mm 6 mps 751 mmHg 48%
    05:00 -9°C° 0 mm 6 mps 752 mmHg 47%
    06:00 -10°C° 0 mm 6 mps 752 mmHg 47%
    07:00 -10°C° 0 mm 6 mps 752 mmHg 46%
    08:00 -10°C° 0 mm 6 mps 752 mmHg 43%
    09:00 -9°C° 0 mm 6 mps 752 mmHg 39%
    10:00 -9°C° 0 mm 6 mps 752 mmHg 35%
    11:00 -8°C° 0 mm 6 mps 752 mmHg 32%
    12:00 -6°C° 0 mm 6 mps 752 mmHg 29%
    13:00 -5°C° 0 mm 6 mps 752 mmHg 26%
    14:00 -5°C° 0 mm 6 mps 751 mmHg 26%
    15:00 -5°C° 0 mm 6 mps 751 mmHg 26%
    16:00 -5°C° 0 mm 6 mps 751 mmHg 26%
    17:00 -6°C° 0 mm 6 mps 751 mmHg 29%
    18:00 -8°C° 0 mm 6 mps 751 mmHg 31%
    19:00 -7°C° 0 mm 5 mps 751 mmHg 33%
    20:00 -8°C° 0 mm 5 mps 751 mmHg 34%
    21:00 -8°C° 0 mm 5 mps 751 mmHg 35%
    22:00 -8°C° 0 mm 5 mps 752 mmHg 36%
    23:00 -10°C° 0 mm 5 mps 752 mmHg 38%

    Day after tomorrow, 26 February, Monday

    Time Temperature Precipitation Wind Pressure Humidity
    00:00 -10°C° 0 mm 5 mps 752 mmHg 39%
    01:00 -10°C° 0 mm 5 mps 752 mmHg 40%
    02:00 -11°C° 0 mm 5 mps 752 mmHg 42%
    03:00 -11°C° 0 mm 5 mps 752 mmHg 43%
    04:00 -11°C° 0 mm 5 mps 752 mmHg 45%
    05:00 -11°C° 0 mm 5 mps 752 mmHg 46%
    06:00 -12°C° 0 mm 5 mps 752 mmHg 47%
    07:00 -12°C° 0 mm 5 mps 752 mmHg 49%
    08:00 -11°C° 0 mm 5 mps 752 mmHg 46%
    09:00 -11°C° 0 mm 5 mps 752 mmHg 44%
    10:00 -10°C° 0 mm 6 mps 752 mmHg 41%
    11:00 -9°C° 0 mm 6 mps 752 mmHg 38%
    12:00 -8°C° 0 mm 6 mps 751 mmHg 35%
    13:00 -8°C° 0 mm 6 mps 751 mmHg 33%
    14:00 -6°C° 0 mm 6 mps 751 mmHg 32%
    15:00 -6°C° 0 mm 6 mps 750 mmHg 32%
    16:00 -6°C° 0 mm 6 mps 750 mmHg 32%
    17:00 -7°C° 0 mm 5 mps 750 mmHg 35%
    18:00 -8°C° 0 mm 5 mps 750 mmHg 38%
    19:00 -8°C° 0 mm 5 mps 750 mmHg 40%
    20:00 -10°C° 0 mm 5 mps 750 mmHg 41%
    21:00 -9°C° 0 mm 4 mps 750 mmHg 42%
    22:00 -9°C° 0 mm 4 mps 750 mmHg 43%
    23:00 -9°C° 0 mm 4 mps 749 mmHg 44%

    27 February, Tuesday

    Time Temperature Precipitation Wind Pressure Humidity
    00:00 -10°C° 0 mm 4 mps 749 mmHg 45%
    01:00 -10°C° 0 mm 4 mps 749 mmHg 46%
    02:00 -10°C° 0 mm 4 mps 748 mmHg 47%
    03:00 -10°C° 0 mm 4 mps 748 mmHg 47%
    04:00 -11°C° 0 mm 4 mps 748 mmHg 48%
    05:00 -10°C° 0 mm 3 mps 748 mmHg 49%
    06:00 -10°C° 0 mm 3 mps 748 mmHg 49%
    07:00 -10°C° 0 mm 3 mps 747 mmHg 50%
    08:00 -11°C° 0 mm 4 mps 747 mmHg 47%
    09:00 -10°C° 0 mm 4 mps 747 mmHg 43%
    10:00 -9°C° 0 mm 4 mps 747 mmHg 40%
    11:00 -9°C° 0 mm 4 mps 747 mmHg 37%
    12:00 -8°C° 0 mm 4 mps 747 mmHg 34%
    13:00 -7°C° 0 mm 4 mps 746 mmHg 32%
    14:00 -7°C° 0 mm 4 mps 746 mmHg 31%
    15:00 -7°C° 0 mm 4 mps 746 mmHg 31%
    16:00 -7°C° 0 mm 4 mps 746 mmHg 30%
    17:00 -7°C° 0 mm 4 mps 746 mmHg 33%
    18:00 -7°C° 0 mm 3 mps 746 mmHg 35%
    19:00 -8°C° 0 mm 3 mps 746 mmHg 37%
    20:00 -8°C° 0 mm 3 mps 746 mmHg 39%
    21:00 -8°C° 0 mm 3 mps 746 mmHg 40%
    22:00 -9°C° 0 mm 3 mps 746 mmHg 42%
    23:00 -9°C° 0 mm 3 mps 746 mmHg 43%

    28 February, Wednesday

    Time Temperature Precipitation Wind Pressure Humidity
    00:00 -9°C° 0 mm 3 mps 746 mmHg 44%
    01:00 -9°C° 0 mm 3 mps 746 mmHg 46%
    02:00 -10°C° 0 mm 3 mps 746 mmHg 47%
    03:00 -10°C° 0 mm 3 mps 746 mmHg 48%
    04:00 -10°C° 0 mm 3 mps 746 mmHg 49%
    05:00 -10°C° 0 mm 3 mps 746 mmHg 51%
    06:00 -10°C° 0 mm 3 mps 746 mmHg 52%
    07:00 -12°C° 0 mm 4 mps 747 mmHg 53%
    08:00 -11°C° 0 mm 4 mps 747 mmHg 49%
    09:00 -10°C° 0 mm 4 mps 747 mmHg 45%
    10:00 -10°C° 0 mm 5 mps 747 mmHg 41%
    11:00 -8°C° 0 mm 5 mps 747 mmHg 38%
    12:00 -7°C° 0 mm 5 mps 746 mmHg 36%
    13:00 -6°C° 0 mm 5 mps 746 mmHg 33%
    14:00 -6°C° 0 mm 5 mps 746 mmHg 32%
    15:00 -6°C° 0 mm 5 mps 745 mmHg 32%
    16:00 -5°C° 0 mm 5 mps 745 mmHg 31%
    17:00 -6°C° 0 mm 5 mps 745 mmHg 34%
    18:00 -6°C° 0 mm 5 mps 745 mmHg 37%
    19:00 -7°C° 0 mm 5 mps 744 mmHg 39%
    20:00 -7°C° 0 mm 5 mps 744 mmHg 41%
    21:00 -8°C° 0 mm 6 mps 744 mmHg 43%
    22:00 -9°C° 0 mm 6 mps 743 mmHg 45%
    23:00 -9°C° 0 mm 6 mps 743 mmHg 46%

    1 March, Thursday

    Time Temperature Precipitation Wind Pressure Humidity
    00:00 -9°C° 0 mm 6 mps 742 mmHg 47%
    01:00 -9°C° 0 mm 6 mps 742 mmHg 48%
    02:00 -9°C° 0 mm 6 mps 742 mmHg 48%
    03:00 -9°C° 0 mm 6 mps 741 mmHg 49%
    04:00 -9°C° 0 mm 6 mps 741 mmHg 49%
    05:00 -9°C° 0 mm 6 mps 741 mmHg 50%
    06:00 -9°C° 0 mm 6 mps 740 mmHg 51%
    07:00 -9°C° 0 mm 6 mps 740 mmHg 51%
    08:00 -9°C° 0 mm 6 mps 740 mmHg 48%
    09:00 -8°C° 0 mm 6 mps 739 mmHg 46%
    10:00 -6°C° 0 mm 6 mps 739 mmHg 43%
    11:00 -5°C° 0 mm 6 mps 739 mmHg 40%
    12:00 -4°C° 0 mm 6 mps 738 mmHg 37%
    13:00 -3°C° 0 mm 6 mps 738 mmHg 34%
    14:00 -3°C° 0 mm 6 mps 738 mmHg 35%
    15:00 -3°C° 0 mm 6 mps 737 mmHg 37%
    16:00 -2°C° 0 mm 5 mps 737 mmHg 38%
    17:00 -3°C° 0 mm 6 mps 737 mmHg 40%
    18:00 -3°C° 0 mm 6 mps 737 mmHg 43%
    19:00 -4°C° 0 mm 6 mps 736 mmHg 46%
    20:00 -4°C° 0 mm 6 mps 736 mmHg 49%
    21:00 -4°C° 0 mm 5 mps 736 mmHg 52%
    22:00 -4°C° 0 mm 5 mps 735 mmHg 54%
    23:00 -4°C° 0 mm 5 mps 735 mmHg 56%
    Show more